OE3FJB-25 Weather Reports


time (UTC)temp
F
wind
direction
speed
knots
gust
knots
rain 1hr
in
rain 24hr
in
rain mn
in
humidity
%
barometer
mb
20260505102151 75 0.0 0.0 0.00 0.00 0.00 59 1011.8
20260505101153 74 0.0 0.0 0.00 0.00 0.00 59 1011.9
20260505100154 74 0.0 0.0 0.00 0.00 0.00 59 1011.9
20260505095156 76 0.0 0.0 0.00 0.00 0.00 57 1011.9
20260505094157 76 0.0 0.0 0.00 0.00 0.00 61 1012.1
20260505093159 73 0.0 0.0 0.00 0.00 0.00 71 1012.2
20260505092200 74 0.0 0.0 0.00 0.00 0.00 70 1012.2
20260505091201 76 0.0 0.0 0.00 0.00 0.00 69 1012.3
20260505090203 75 0.0 0.0 0.00 0.00 0.00 79 1012.4
20260505085204 72 0.0 0.0 0.00 0.00 0.00 95 1012.5
20260505084206 70 0.0 0.0 0.00 0.00 0.00 99 1012.4
20260505083207 70 0.0 0.0 0.00 0.00 0.00 99 1012.5
20260505082209 68 0.0 0.0 0.00 0.00 0.00 99 1012.5
20260505081210 67 0.0 0.0 0.00 0.00 0.00 99 1012.5
20260505080211 67 0.0 0.0 0.00 0.00 0.00 99 1012.7
20260505075213 67 0.0 0.0 0.00 0.00 0.00 99 1012.6
20260505074214 66 0.0 0.0 0.00 0.00 0.00 99 1012.6
20260505073216 66 0.0 0.0 0.00 0.00 0.00 99 1012.8
20260505072217 67 0.0 0.0 0.00 0.00 0.00 99 1012.8
20260505071218 67 0.0 0.0 0.00 0.00 0.00 99 1012.8
20260505070220 64 0.0 0.0 0.00 0.00 0.00 99 1012.9
20260505065221 65 0.0 0.0 0.00 0.00 0.00 99 1012.9
20260505064223 66 0.0 0.0 0.00 0.00 0.00 99 1012.9
20260505063224 66 0.0 0.0 0.00 0.00 0.00 99 1012.9
20260505062225 64 0.0 0.0 0.00 0.00 0.00 99 1013.0
20260505061227 63 0.0 0.0 0.00 0.00 0.00 99 1013.0
20260505060228 61 0.0 0.0 0.00 0.00 0.00 99 1013.0
20260505055229 61 0.0 0.0 0.00 0.00 0.00 99 1013.2
20260505054231 60 0.0 0.0 0.00 0.00 0.00 99 1013.1
20260505053232 59 0.0 0.0 0.00 0.00 0.00 99 1013.1
20260505052232 59 0.0 0.0 0.00 0.00 0.00 99 1013.1
20260505051233 58 0.0 0.0 0.00 0.00 0.00 99 1013.1
20260505050234 58 0.0 0.0 0.00 0.00 0.00 99 1013.1
20260505041241 56 0.0 0.0 0.00 0.00 0.00 99 1013.3
20260505040243 56 0.0 0.0 0.00 0.00 0.00 99 1013.3
20260505035244 56 0.0 0.0 0.00 0.00 0.00 99 1013.3
20260505034245 57 0.0 0.0 0.00 0.00 0.00 99 1013.3
20260505033244 56 0.0 0.0 0.00 0.00 0.00 99 1013.3
20260505032246 56 0.0 0.0 0.00 0.00 0.00 99 1013.3
20260505031247 56 0.0 0.0 0.00 0.00 0.00 99 1013.4
20260505030248 57 0.0 0.0 0.00 0.00 0.00 99 1013.3
20260505025250 57 0.0 0.0 0.00 0.00 0.00 99 1013.4
20260505024251 57 0.0 0.0 0.00 0.00 0.00 99 1013.5
20260505023252 57 0.0 0.0 0.00 0.00 0.00 99 1013.5
20260505022254 58 0.0 0.0 0.00 0.00 0.00 99 1013.5
20260505021255 57 0.0 0.0 0.00 0.00 0.00 99 1013.6
20260505020257 57 0.0 0.0 0.00 0.00 0.00 99 1013.7
20260505015258 58 0.0 0.0 0.00 0.00 0.00 99 1013.7
20260505014259 58 0.0 0.0 0.00 0.00 0.00 99 1013.7
20260505013301 58 0.0 0.0 0.00 0.00 0.00 99 1013.7
20260505012304 58 0.0 0.0 0.00 0.00 0.00 99 1013.8
20260505011303 58 0.0 0.0 0.00 0.00 0.00 99 1013.9
20260505010305 58 0.0 0.0 0.00 0.00 0.00 99 1013.9
20260505005306 58 0.0 0.0 0.00 0.00 0.00 99 1014.1
20260505004308 58 0.0 0.0 0.00 0.00 0.00 99 1014.1
20260505003309 57 0.0 0.0 0.00 0.00 0.00 99 1014.2
20260505002310 57 0.0 0.0 0.00 0.00 0.00 99 1014.2
20260505001312 57 0.0 0.0 0.00 0.00 0.00 99 1014.3
20260505000313 57 0.0 0.0 0.00 0.00 0.00 99 1014.5
20260504235314 57 0.0 0.0 0.00 0.00 0.00 99 1014.6
20260504234316 57 0.0 0.0 0.00 0.00 0.00 99 1014.6
20260504233317 58 0.0 0.0 0.00 0.00 0.00 99 1014.8
20260504232319 58 0.0 0.0 0.00 0.00 0.00 99 1014.9
20260504231320 58 0.0 0.0 0.00 0.00 0.00 99 1015.1
20260504230321 58 0.0 0.0 0.00 0.00 0.00 99 1015.1
20260504225323 59 0.0 0.0 0.00 0.00 0.00 99 1015.2
20260504224324 59 0.0 0.0 0.00 0.00 0.00 99 1015.2
20260504223325 60 0.0 0.0 0.00 0.00 0.00 99 1015.3
20260504222327 60 0.0 0.0 0.00 0.00 0.00 93 1015.3
20260504221328 61 0.0 0.0 0.00 0.00 0.00 88 1015.3
20260504220329 61 0.0 0.0 0.00 0.00 0.00 82 1015.3
20260504215331 61 0.0 0.0 0.00 0.00 0.00 80 1015.4
20260504214332 61 0.0 0.0 0.00 0.00 0.00 82 1015.5
20260504213334 60 0.0 0.0 0.00 0.00 0.00 88 1015.5
20260504212335 61 0.0 0.0 0.00 0.00 0.00 85 1015.6
20260504211336 61 0.0 0.0 0.00 0.00 0.00 82 1015.7
20260504210338 60 0.0 0.0 0.00 0.00 0.00 83 1015.7
20260504205339 60 0.0 0.0 0.00 0.00 0.00 85 1015.7
20260504204341 60 0.0 0.0 0.00 0.00 0.00 83 1015.6
20260504203342 60 0.0 0.0 0.00 0.00 0.00 79 1015.5
20260504202344 61 0.0 0.0 0.00 0.00 0.00 76 1015.4
20260504201345 61 0.0 0.0 0.00 0.00 0.00 74 1015.4
20260504200346 62 0.0 0.0 0.00 0.00 0.00 68 1015.4
20260504195348 63 0.0 0.0 0.00 0.00 0.00 63 1015.4
20260504194349 64 0.0 0.0 0.00 0.00 0.00 60 1015.5
20260504193350 64 0.0 0.0 0.00 0.00 0.00 59 1015.5
20260504192352 64 0.0 0.0 0.00 0.00 0.00 58 1015.6
20260504191353 64 0.0 0.0 0.00 0.00 0.00 59 1015.5
20260504190355 65 0.0 0.0 0.00 0.00 0.00 59 1015.5
20260504185356 65 0.0 0.0 0.00 0.00 0.00 61 1015.4
20260504184357 65 0.0 0.0 0.00 0.00 0.00 63 1015.5
20260504183359 65 0.0 0.0 0.00 0.00 0.00 63 1015.6
20260504182400 66 0.0 0.0 0.00 0.00 0.00 64 1015.6
20260504181401 66 0.0 0.0 0.00 0.00 0.00 71 1015.6
20260504180403 66 0.0 0.0 0.00 0.00 0.00 72 1015.7
20260504175404 67 0.0 0.0 0.00 0.00 0.00 72 1015.6
20260504174406 67 0.0 0.0 0.00 0.00 0.00 72 1015.6
20260504173407 68 0.0 0.0 0.00 0.00 0.00 72 1015.5
20260504172408 68 0.0 0.0 0.00 0.00 0.00 71 1015.6
20260504171410 68 0.0 0.0 0.00 0.00 0.00 69 1015.6
20260504170411 69 0.0 0.0 0.00 0.00 0.00 66 1015.6
20260504160420 71 0.0 0.0 0.00 0.00 0.00 63 1015.9
20260504150428 71 0.0 0.0 0.00 0.00 0.00 47 1016.2
20260504140436 73 0.0 0.0 0.00 0.00 0.00 43 1016.6
20260504130444 74 0.0 0.0 0.00 0.00 0.00 40 1017.3
20260504110502 78 0.0 0.0 0.00 0.00 0.00 38 1018.2